Huvudsida
METAR-TAF:

METAR-TAF

Flygplatser :

Sandane flygplats. Anda

Sandane, Norge

latitud: 61-50N, longitud: 006-07E, höjd: 6 m

Aktuellt väderrapport

Denna rapport gjordes för 9 timmar och 30 minuter sedan, klockan 19:50 UTC
Vind 1 kt varierande vindriktning
Temperatur 10°C
Fuktighet 100%
Tryck 1033 hPa
Sikt 10 km eller mer
Få moln på en höjd av 1100 ft
Spridda moln på en höjd av 2600 ft
Brutna moln på en höjd av 3000 ft

METAR: ENSD 161950Z VRB01KT 9999 FEW011 SCT026 BKN030 10/10 Q1033 RMK WIND 1138FT 20006KT

Tid: 06:20 (05:20 UTC)


TAF: saknas

Aktuella väderrapporter och prognoser från 4000 flygplatser (METAR- och TAF-rapporter).

De tillgängliga stationerna syns som gula och röda prickar på kartan.

För musen över prickarna för att se namnen på stationerna.

Klicka sedan för att få väderrapporter och prognoser.

För att ändra kartan: Klicka på de gröna knapparna med ett svart kors på för att zooma in; den gröna knappen med ett streck på för att zooma ut; eller på de gröna pilarna för angränsande kartor.


METAR-TAF: